Weather History for KEMP - January, 2013

Change the Weather History Date:

Wednesday, January 30, 2013

  Actual Average Record
Temperature  
Mean Temperature 25 °F 32 °F  
Max Temperature 33 °F 42 °F 69 °F (2012)
Min Temperature 17 °F 21 °F 1 °F (2004)
Degree Days  
Heating Degree Days 40 33  
Month to date heating degree days 913 1017  
Since 1 July heating degree days 2669 2950  
Cooling Degree Days 0 0  
Month to date cooling degree days 0 0  
Year to date cooling degree days 0 0  
Moisture  
Dew Point 22 °F    
Average Humidity 80    
Maximum Humidity 96    
Minimum Humidity 63    
Precipitation  
Precipitation 0.01 in 0.04 in 1.01 in (1999)
Month to date precipitation 0.49 0.59  
Year to date precipitation 0.49 0.59  
Sea Level Pressure  
Sea Level Pressure 29.82 in    
Wind  
Wind Speed 14 mph (NW)    
Max Wind Speed 29 mph    
Max Gust Speed 38 mph    
Visibility 6 miles    
Events Snow    
T = Trace of Precipitation, MM = Missing Value Source: NWS Daily Summary

Daily Weather History Graph

Daily Weather History Graph

Search for Another Location

Airport or City:

Trip Planner

Search our weather history database for the weather conditions in past years. The results will help you decide how hot, cold, wet, or windy it might be!

Date:

Astronomy

Jan. 30, 2013 Rise Set
Actual Time 7:31 AM CST 5:45 PM CST
Civil Twilight 7:03 AM CST 6:13 PM CST
Nautical Twilight 6:31 AM CST 6:45 PM CST
Astronomical Twilight 6:00 AM CST 7:16 PM CST
Moon 9:40 PM CST (1/30) 9:03 AM CST (1/30)
Length of Visible Light 11h 10m
Length of Day
10h 14m
Waning Gibbous, 87% of the Moon is Illuminated
Jan 30
Waning Gibbous
Feb 3
Last Quarter
Feb 10
New
Feb 17
First Quarter
Feb 25
Full

Hourly Weather History & Observations

Time (CST) Temp. Windchill Dew Point Humidity Pressure Visibility Wind Dir Wind Speed Gust Speed Precip Events Conditions
12:12 AM 33.8 °F 25.8 °F 30.2 °F 87% 29.59 in 2.0 mi NW 10.4 mph - N/A   Mist
12:33 AM 33.8 °F 27.0 °F 32.0 °F 93% 29.58 in 2.0 mi NW 8.1 mph - 0.00 in   Overcast
12:53 AM 33.1 °F 24.4 °F 32.0 °F 96% 29.61 in 2.0 mi WNW 11.5 mph - 0.00 in   Mist
1:30 AM 33.8 °F 24.8 °F 32.0 °F 93% 29.57 in 2.5 mi NW 12.7 mph 18.4 mph N/A   Mist
1:38 AM 33.8 °F 23.2 °F 30.2 °F 87% 29.57 in 5.0 mi NNW 17.3 mph 21.9 mph N/A   Mist
2:53 AM 33.1 °F 22.2 °F 30.0 °F 89% 29.64 in 7.0 mi NNW 17.3 mph - 0.01 in   Unknown
3:53 AM 32.0 °F 19.2 °F 28.9 °F 88% 29.65 in 3.0 mi NNW 23.0 mph 31.1 mph 0.00 in Snow Light Snow
4:42 AM 32.0 °F 20.5 °F 28.4 °F 87% 29.64 in 5.0 mi NNW 18.4 mph 32.2 mph 0.00 in Snow Light Snow
4:53 AM 30.9 °F 17.8 °F 28.0 °F 89% 29.68 in - NNW 23.0 mph 31.1 mph 0.00 in Snow Light Snow
5:06 AM 30.2 °F 18.1 °F 28.4 °F 93% 29.65 in 1.8 mi NNW 18.4 mph 25.3 mph 0.00 in Snow Light Snow
5:14 AM 30.2 °F 17.4 °F 28.4 °F 93% 29.66 in 1.0 mi NW 20.7 mph 28.8 mph 0.00 in Snow Light Snow
5:17 AM 30.2 °F 17.1 °F 28.4 °F 93% 29.66 in 1.2 mi NNW 21.9 mph 28.8 mph 0.00 in Snow Light Snow
5:38 AM 30.2 °F 16.5 °F 26.6 °F 86% 29.68 in 2.0 mi NNW 24.2 mph 34.5 mph 0.00 in Snow Light Snow
5:49 AM 28.4 °F 15.1 °F 26.6 °F 93% 29.69 in 1.5 mi NW 20.7 mph 32.2 mph 0.00 in Snow Light Snow
5:53 AM 28.9 °F 16.1 °F 27.0 °F 92% 29.73 in 1.5 mi NW 19.6 mph 33.4 mph 0.00 in Snow Light Snow
6:29 AM 26.6 °F 11.1 °F 23.0 °F 86% 29.74 in 2.0 mi NW 26.5 mph 39.1 mph 0.00 in Snow Light Snow
6:53 AM 26.1 °F 11.3 °F 21.9 °F 84% 29.79 in 4.0 mi NW 23.0 mph 28.8 mph 0.00 in Snow Light Snow
7:38 AM 24.8 °F 9.0 °F 21.2 °F 86% 29.80 in 1.8 mi NW 25.3 mph 34.5 mph 0.00 in Snow Light Snow
7:42 AM 24.8 °F 9.6 °F 21.2 °F 86% 29.80 in 1.2 mi NNW 23.0 mph 34.5 mph 0.00 in Snow Light Snow
8:05 AM 24.8 °F 10.0 °F 19.4 °F 80% 29.81 in 1.2 mi NNW 21.9 mph 33.4 mph 0.00 in Snow Light Snow
8:13 AM 24.8 °F 10.7 °F 19.4 °F 80% 29.82 in 2.0 mi NW 19.6 mph 27.6 mph 0.00 in Snow Light Snow
8:27 AM 24.8 °F 10.7 °F 19.4 °F 80% 29.82 in 5.0 mi NW 19.6 mph 33.4 mph 0.00 in   Overcast
8:53 AM 24.1 °F 7.1 °F 18.0 °F 77% 29.88 in 5.0 mi NW 28.8 mph 34.5 mph 0.00 in   Unknown
9:08 AM 24.8 °F 10.3 °F 17.6 °F 74% 29.85 in 9.0 mi NW 20.7 mph 32.2 mph 0.00 in   Overcast
9:46 AM 24.8 °F 10.3 °F 17.6 °F 74% 29.87 in 10.0 mi NW 20.7 mph 38.0 mph 0.00 in   Overcast
10:25 AM 24.8 °F 9.3 °F 15.8 °F 69% 29.90 in 10.0 mi NW 24.2 mph 33.4 mph 0.00 in   Overcast
10:53 AM 24.1 °F 9.4 °F 16.0 °F 71% 29.95 in 9.0 mi NNW 20.7 mph 35.7 mph 0.00 in   Overcast
11:53 AM 25.0 °F 9.9 °F 16.0 °F 69% 29.95 in 10.0 mi NW 23.0 mph 31.1 mph N/A   Overcast
12:53 PM 25.0 °F 11.7 °F 17.1 °F 72% 29.95 in 9.0 mi NW 17.3 mph 27.6 mph 0.00 in   Overcast
1:53 PM 26.1 °F 12.0 °F 16.0 °F 66% 29.94 in 10.0 mi NW 20.7 mph 29.9 mph N/A   Overcast
2:53 PM 25.0 °F 12.2 °F 16.0 °F 69% 29.96 in 10.0 mi WNW 16.1 mph 29.9 mph N/A   Overcast
3:53 PM 26.1 °F 12.0 °F 16.0 °F 66% 29.97 in 10.0 mi WNW 20.7 mph 27.6 mph N/A   Overcast
4:53 PM 26.1 °F 14.0 °F 17.1 °F 69% 29.94 in 10.0 mi NW 15.0 mph 23.0 mph N/A   Overcast
5:53 PM 26.1 °F 15.6 °F 17.1 °F 69% 30.00 in 10.0 mi WNW 11.5 mph - N/A   Overcast
6:48 PM 26.6 °F 15.2 °F 17.6 °F 69% 29.96 in 10.0 mi WNW 13.8 mph 24.2 mph N/A   Overcast
6:53 PM 27.0 °F 16.7 °F 18.0 °F 69% 30.01 in 10.0 mi WNW 11.5 mph 23.0 mph N/A   Overcast
7:34 PM 26.6 °F 15.7 °F 17.6 °F 69% 29.97 in 10.0 mi WNW 12.7 mph 18.4 mph N/A   Overcast
7:53 PM 25.0 °F 14.8 °F 17.1 °F 72% 29.97 in 10.0 mi WNW 10.4 mph - N/A   Scattered Clouds
8:53 PM 21.9 °F 17.2 °F 16.0 °F 78% 30.03 in 10.0 mi West 3.5 mph - N/A   Clear
9:53 PM 19.9 °F 13.4 °F 14.0 °F 78% 30.04 in 10.0 mi WSW 4.6 mph - N/A   Clear
10:53 PM 18.0 °F 9.8 °F 14.0 °F 84% 30.02 in 10.0 mi South 5.8 mph - N/A   Clear
11:53 PM 18.0 °F 9.8 °F 14.0 °F 84% 30.02 in 10.0 mi South 5.8 mph - N/A   Clear